This is the latest recevied weather packets stored in our database for station/object F8KHU-13. If no packets are shown the sender has not sent any weather packets the latest 10 day(s).
| Time | Temp. | Humidity | Pressure | Rain* | Wind** | Luminosity | Snow |
|---|---|---|---|---|---|---|---|
| 1788593121 | 14.44° C | 33% | 1022.3 hPa | 0 mm | - | 0 W/m² | - |
| 1788592261 | 14.44° C | 33% | 1022.2 hPa | 0 mm | - | 0 W/m² | - |
| 1788592242 | 14.44° C | 33% | 1022.2 hPa | 0 mm | - | 0 W/m² | - |
| 1788591365 | 13.89° C | 41% | 1022.2 hPa | 0 mm | - | 0 W/m² | - |
| 1788591325 | 13.89° C | 44% | 1022.2 hPa | 0 mm | - | 0 W/m² | - |
| 1788590465 | 13.33° C | 45% | 1021.9 hPa | 0 mm | - | 0 W/m² | - |
| 1788590445 | 13.33° C | 45% | 1022 hPa | 0 mm | - | 0 W/m² | - |
| 1788590425 | 13.33° C | 45% | 1021.9 hPa | 0 mm | - | 0 W/m² | - |
| 1788589565 | 12.78° C | 40% | 1021.8 hPa | 0 mm | - | 0 W/m² | - |
| 1788589545 | 12.78° C | 41% | 1021.7 hPa | 0 mm | - | 0 W/m² | - |
| 1788588665 | 12.78° C | 37% | 1021.4 hPa | 0 mm | - | 0 W/m² | - |
| 1788588646 | 12.78° C | 40% | 1021.4 hPa | 0 mm | - | 0 W/m² | - |
| 1788588625 | 12.78° C | 40% | 1021.5 hPa | 0 mm | - | 0 W/m² | - |
| 1788587765 | 12.78° C | 35% | 1021.4 hPa | 0 mm | - | 0 W/m² | - |
| 1788587746 | 12.78° C | 37% | 1021.5 hPa | 0 mm | - | 0 W/m² | - |
| 1788586866 | 12.78° C | 34% | 1021.2 hPa | 0 mm | - | 0 W/m² | - |
| 1788586846 | 12.78° C | 34% | 1021.3 hPa | 0 mm | - | 0 W/m² | - |
| 1788586826 | 12.78° C | 34% | 1021.3 hPa | 0 mm | - | 0 W/m² | - |
| 1788585961 | 12.78° C | 34% | 1021 hPa | 0 mm | - | 0 W/m² | - |
| 1788585941 | 12.78° C | 34% | 1020.9 hPa | 0 mm | - | 0 W/m² | - |
| 1788585921 | 12.78° C | 34% | 1020.9 hPa | 0 mm | - | 0 W/m² | - |
| 1788585063 | 12.78° C | 34% | 1020.7 hPa | 0 mm | - | 0 W/m² | - |
| 1788585043 | 12.78° C | 34% | 1020.8 hPa | 0 mm | - | 0 W/m² | - |
| 1788584163 | 12.78° C | 34% | 1020.5 hPa | 0 mm | - | 0 W/m² | - |
| 1788584143 | 12.78° C | 34% | 1020.6 hPa | 0 mm | - | 0 W/m² | - |
* Rain latest hour (hover to see other rain measurements)
** Current wind speed in m/s (hover to see current wind gust speed)